This demonstration page uses our WeatherBlox Daily Observations layout. Learn more.

Left ArrowRight Arrow

Hourly Observations for June 28, 2015

Temp ( °F °C ) Dew Point ( °F °C ) Humidity (%) Winds ( mph kmh ) Pressure ( in mb ) Visibility ( mi km ) Precip ( " mm )
12:53 am 00:53 Clear 64 17.8 49 9.4 58 58 W 9 15 29.90 1013 10 16 0.00 0.00
1:53 am 01:53 Clear 64 17.8 50 10 60 60 SW 8 13 29.90 1012 10 16 0.00 0.00
2:53 am 02:53 Clear 66 18.9 49 9.4 54 54 W 5 7 29.89 1012 10 16 0.00 0.00
3:53 am 03:53 Clear 61 16.1 48 8.9 63 63 undefined N/A 29.91 1013 10 16 0.00 0.00
4:53 am 04:53 Clear 57 13.9 48 8.9 72 72 SW 6 9 29.93 1013 10 16 0.00 0.00
5:53 am 05:53 Sunny 59 15 49 9.4 69 69 W 5 7 29.93 1014 10 16 0.00 0.00
6:53 am 06:53 Sunny 62 16.7 50 10 65 65 SW 6 9 29.95 1014 10 16 0.00 0.00
7:53 am 07:53 Sunny 66 18.9 50 10 56 56 WSW 8 13 29.96 1014 10 16 0.00 0.00
8:53 am 08:53 Sunny 73 22.8 51 10.6 46 46 W 7 11 29.96 1015 10 16 0.00 0.00
9:53 am 09:53 Sunny 81 27.2 51 10.6 35 35 W 6 9 29.96 1015 10 16 0.00 0.00
10:53 am 10:53 Sunny 87 30.6 50 10 28 28 VRB 3 6 29.95 1014 10 16 0.00 0.00
11:53 am 11:53 Sunny 91 32.8 50 10 25 25 VRB 3 6 29.95 1014 10 16 0.00 0.00
12:53 pm 12:53 Sunny 95 35 46 7.8 19 19 N 8 13 29.94 1014 10 16 0.00 0.00
1:53 pm 13:53 Sunny 97 36.1 45 7.2 17 17 undefined N/A 29.93 1014 10 16 0.00 0.00
2:53 pm 14:53 Sunny 99 37.2 43 6.1 15 15 WNW 8 13 29.91 1013 10 16 0.00 0.00
3:53 pm 15:53 Sunny 101 38.3 44 6.7 14 14 N 10 17 29.91 1013 10 16 0.00 0.00
4:53 pm 16:53 Sunny 102 38.9 42 5.6 13 13 W 13 20 29.90 1012 10 16 0.00 0.00
5:53 pm 17:53 Sunny 101 38.3 42 5.6 13 13 WNW 13 20 29.89 1012 10 16 0.00 0.00
7:53 pm 19:53 Sunny 98 36.7 39 3.9 13 13 NNW 12 19 29.89 1012 10 16 0.00 0.00
8:53 pm 20:53 Sunny 91 32.8 44 6.7 20 20 N 6 9 29.91 1013 10 16 0.00 0.00
9:53 pm 21:53 Clear 85 29.4 47 8.3 27 27 NNE 8 13 29.92 1013 10 16 0.00 0.00
10:53 pm 22:53 Clear 80 26.7 47 8.3 31 31 NNE 8 13 29.93 1014 10 16 0.00 0.00
11:53 pm 23:53 Clear 67 19.4 50 10 55 55 S 5 7 29.95 1014 10 16 0.00 0.00

Powered by AerisWeather